QPF
0.00 0.00 0.00 0.00 0.00 0.00 0.00 0.00 0.00 0.00 0.00 0.00 0.00 0.00 0.00 0.00 0.00 0.00 0.00 0.00 0.00 0.00 0.00 0.00 0.00 0.00 0.00 0.00 0.00 0.00 0.00 0.00 0.00 0.00 0.00 0.00 0.00 0.00 0.00 0.00 0.00 0.00 0.00 0.00 0.00
0.00 0.00 0.00 0.00 0.00 0.00 0.00 0.00 0.00 0.00 0.00 0.00 0.00 0.00 0.00 0.00 0.00 0.00 0.00 0.00 0.00 0.00 0.00 0.00 0.00 0.00 0.00 0.00 0.00 0.00 0.00 0.00 0.00 0.00 0.00 0.00 0.00 0.00 0.00 0.00 0.00 0.00 0.00 0.00 0.00
0.00 0.00 0.00 0.00 0.00 0.00 0.00 0.00 0.00 0.00 0.00 0.00 0.00 0.00 0.00 0.00 0.00 0.00 0.00 0.00 0.00 0.00 0.00 0.00 0.00 0.00 0.00 0.00 0.00 0.00 0.00 0.00 0.00 0.00 0.00 0.00 0.00 0.00 0.00 0.00 0.00 0.00 0.00 0.00 0.00
0.00 0.00 0.00 0.00 0.00 0.00 0.00 0.00 0.00 0.00 0.00 0.00 0.00 0.00 0.00 0.00 0.00 0.00 0.00 0.00 0.00 0.00 0.00 0.00 0.00 0.00 0.00 0.00 0.00 0.00 0.00 0.00 0.00 0.00 0.00 0.00 0.00 0.00 0.00 0.00 0.00 0.00 0.00 0.00 0.00
0.00 0.00 0.00 0.00 0.00 0.00 0.00 0.00 0.00 0.00 0.00 0.00 0.00 0.00 0.00 0.00 0.00 0.00 0.00 0.00 0.00 0.00 0.00 0.00 0.00 0.00 0.00 0.00 0.00 0.00 0.00 0.00 0.00 0.00 0.00 0.00 0.00 0.00 0.00 0.00 0.00 0.00 0.00 0.00 0.00
0.00 0.00 0.00 0.00 0.00 0.00 0.00 0.00 0.00 0.00 0.00 0.01 0.01 0.01 0.00 0.00 0.00 0.00 0.00 0.00 0.00 0.00 0.00 0.00 0.00 0.00 0.00 0.00 0.00 0.00 0.00 0.00 0.00 0.00 0.00 0.00 0.00 0.00 0.00 0.00 0.00 0.00 0.00 0.00 0.00
0.00 0.00 0.00 0.00 0.00 0.00 0.00 0.00 0.00 0.00 0.00 0.00 0.01 0.00 0.00 0.00 0.00 0.00 0.00 0.00 0.00 0.00 0.00 0.00 0.00 0.00 0.00 0.00 0.00 0.00 0.00 0.00 0.00 0.00 0.00 0.00 0.00 0.00 0.00 0.00 0.00 0.00 0.00 0.00 0.00
0.00 0.00 0.00 0.00 0.00 0.00 0.00 0.00 0.00 0.00 0.00 0.00 0.00 0.00 0.00 0.00 0.00 0.00 0.00 0.00 0.00 0.00 0.00 0.00 0.00 0.00 0.00 0.00 0.00 0.00 0.00 0.00 0.00 0.00 0.00 0.00 0.00 0.00 0.00 0.00 0.00 0.00 0.00 0.00 0.00
0.00 0.00 0.00 0.00 0.00 0.00 0.00 0.00 0.00 0.00 0.00 0.00 0.00 0.00 0.00 0.00 0.00 0.00 0.00 0.00 0.00 0.00 0.00 0.00 0.00 0.00 0.00 0.00 0.00 0.00 0.00 0.00 0.00 0.00 0.00 0.00 0.00 0.00 0.00 0.00 0.00 0.00 0.00 0.00 0.00
0.00 0.00 0.00 0.00 0.00 0.00 0.00 0.00 0.00 0.00 0.00 0.00 0.00 0.00 0.00 0.00 0.00 0.00 0.00 0.00 0.00 0.00 0.00 0.00 0.00 0.00 0.00 0.00 0.00 0.00 0.00 0.00 0.00 0.00 0.00 0.00 0.00 0.00 0.00 0.00 0.00 0.00 0.00 0.00 0.00
0.00 0.00 0.00 0.00 0.00 0.00 0.00 0.00 0.00 0.00 0.00 0.00 0.00 0.00 0.00 0.00 0.00 0.00 0.00 0.00 0.00 0.00 0.00 0.00 0.00 0.00 0.00 0.00 0.00 0.00 0.00 0.00 0.00 0.00 0.00 0.00 0.00 0.00 0.00 0.00 0.00 0.00 0.00 0.00 0.00
0.00 0.00 0.00 0.00 0.00 0.00 0.00 0.00 0.00 0.00 0.00 0.00 0.00 0.00 0.00 0.00 0.00 0.00 0.00 0.00 0.00 0.00 0.00 0.00 0.00 0.00 0.00 0.00 0.00 0.00 0.00 0.00 0.00 0.00 0.00 0.00 0.00 0.00 0.00 0.00 0.00 0.00 0.00 0.00 0.00
0.00 0.00 0.00 0.00 0.00 0.00 0.00 0.00 0.00 0.00 0.00 0.00 0.00 0.00 0.00 0.00 0.00 0.00 0.00 0.00 0.00 0.00 0.00 0.00 0.00 0.00 0.00 0.00 0.00 0.00 0.00 0.00 0.00 0.00 0.00 0.00 0.00 0.00 0.00 0.00 0.00 0.00 0.00 0.00 0.00
0.00 0.00 0.00 0.00 0.00 0.00 0.00 0.00 0.00 0.00 0.00 0.00 0.00 0.00 0.00 0.00 0.00 0.00 0.00 0.00 0.00 0.00 0.00 0.00 0.00 0.00 0.00 0.00 0.00 0.00 0.00 0.00 0.00 0.00 0.00 0.00 0.00 0.00 0.00 0.00 0.00 0.00 0.00 0.00 0.00
0.00 0.00 0.00 0.00 0.00 0.00 0.00 0.00 0.00 0.00 0.00 0.00 0.00 0.00 0.00 0.00 0.00 0.01 0.03 0.02 0.00 0.00 0.00 0.00 0.00 0.00 0.00 0.00 0.00 0.00 0.00 0.00 0.00 0.00 0.00 0.00 0.00 0.00 0.00 0.00 0.00 0.00 0.00 0.00 0.00
0.00 0.00 0.00 0.00 0.00 0.00 0.00 0.00 0.00 0.00 0.00 0.00 0.00 0.00 0.00 0.00 0.00 0.01 0.01 0.01 0.01 0.00 0.00 0.00 0.00 0.00 0.00 0.00 0.00 0.00 0.00 0.00 0.00 0.00 0.00 0.00 0.00 0.00 0.00 0.00 0.00 0.00 0.00 0.00 0.00
0.00 0.00 0.00 0.00 0.00 0.00 0.00 0.00 0.00 0.00 0.00 0.00 0.00 0.00 0.00 0.00 0.00 0.00 0.01 0.00 0.02 0.02 0.00 0.00 0.00 0.00 0.00 0.00 0.00 0.00 0.00 0.00 0.00 0.00 0.00 0.00 0.00 0.00 0.00 0.00 0.00 0.00 0.00 0.00 0.00
0.00 0.00 0.00 0.00 0.00 0.00 0.00 0.00 0.00 0.00 0.00 0.00 0.00 0.00 0.00 0.00 0.00 0.00 0.00 0.00 0.02 0.08 0.03 0.01 0.00 0.00 0.00 0.00 0.00 0.00 0.00 0.00 0.00 0.00 0.00 0.00 0.00 0.00 0.00 0.00 0.00 0.00 0.00 0.00 0.00
0.00 0.00 0.00 0.00 0.00 0.00 0.00 0.00 0.00 0.00 0.00 0.00 0.00 0.00 0.00 0.00 0.00 0.00 0.00 0.00 0.01 0.10 0.06 0.03 0.03 0.02 0.00 0.00 0.00 0.00 0.00 0.00 0.00 0.00 0.00 0.00 0.00 0.00 0.00 0.00 0.00 0.00 0.00 0.00 0.00
0.00 0.00 0.00 0.00 0.00 0.00 0.00 0.00 0.00 0.00 0.00 0.00 0.00 0.00 0.00 0.00 0.00 0.00 0.00 0.02 0.00 0.00 0.00 0.00 0.00 0.00 0.00 0.00 0.00 0.00 0.00 0.00 0.00 0.00 0.00 0.00 0.00 0.00 0.00 0.00 0.00 0.00 0.00 0.00 0.00
0.00 0.00 0.00 0.00 0.00 0.00 0.00 0.00 0.00 0.00 0.00 0.00 0.00 0.00 0.00 0.00 0.00 0.00 0.00 0.01 0.00 0.00 0.00 0.00 0.00 0.00 0.00 0.00 0.00 0.00 0.00 0.00 0.00 0.00 0.00 0.00 0.00 0.00 0.00 0.00 0.00 0.00 0.00 0.00 0.00
0.00 0.00 0.00 0.00 0.00 0.00 0.00 0.00 0.00 0.00 0.00 0.00 0.00 0.00 0.00 0.00 0.00 0.00 0.00 0.00 0.00 0.00 0.00 0.00 0.00 0.00 0.00 0.00 0.00 0.00 0.00 0.00 0.00 0.00 0.00 0.00 0.00 0.00 0.00 0.00 0.00 0.00 0.00 0.00 0.00
0.00 0.00 0.00 0.00 0.00 0.00 0.00 0.00 0.00 0.00 0.00 0.00 0.00 0.00 0.00 0.00 0.00 0.00 0.00 0.00 0.00 0.00 0.00 0.01 0.00 0.00 0.00 0.00 0.00 0.00 0.00 0.00 0.00 0.00 0.00 0.00 0.00 0.00 0.00 0.00 0.00 0.00 0.00 0.00 0.00
0.00 0.00 0.00 0.00 0.00 0.00 0.00 0.00 0.00 0.00 0.00 0.00 0.00 0.00 0.00 0.00 0.00 0.00 0.00 0.00 0.00 0.00 0.01 0.02 0.00 0.00 0.00 0.00 0.00 0.00 0.00 0.00 0.00 0.00 0.00 0.00 0.00 0.00 0.00 0.00 0.00 0.00 0.00 0.00 0.00
0.00 0.00 0.00 0.00 0.00 0.00 0.00 0.00 0.00 0.00 0.00 0.00 0.00 0.00 0.01 0.02 0.00 0.00 0.00 0.00 0.00 0.00 0.00 0.01 0.00 0.00 0.00 0.00 0.00 0.00 0.00 0.00 0.00 0.00 0.00 0.00 0.00 0.00 0.00 0.00 0.00 0.00 0.00 0.00 0.00
0.00 0.00 0.00 0.00 0.00 0.00 0.00 0.00 0.00 0.01 0.01 0.00 0.01 0.01 0.01 0.01 0.00 0.00 0.00 0.02 0.04 0.00 0.01 0.03 0.01 0.00 0.00 0.00 0.00 0.00 0.00 0.00 0.00 0.00 0.00 0.00 0.00 0.00 0.00 0.00 0.00 0.00 0.00 0.00 0.00
0.00 0.00 0.00 0.00 0.00 0.00 0.00 0.00 0.00 0.01 0.01 0.00 0.01 0.01 0.00 0.00 0.00 0.00 0.00 0.02 0.05 0.01 0.01 0.02 0.01 0.01 0.00 0.00 0.00 0.00 0.00 0.00 0.00 0.00 0.00 0.00 0.00 0.00 0.00 0.00 0.00 0.00 0.00 0.00 0.00
MSLP
1020.48 1020.13 1019.78 1019.49 1019.11 1018.76 1018.38 1018.01 1017.69 1017.43 1017.15 1016.83 1016.54 1016.25 1015.73 1015.29 1014.46 1013.92 1012.93 1011.08 1010.62 1010.12 1010.07 1010.10 1010.08 1010.03 1010.08 1010.26 1010.12 1010.50 1011.06 1010.73 1009.18 1008.43 1007.16 1006.28 1005.69 1004.58 1004.13 1003.78 1003.34 1002.95 1002.75 1002.61 1002.69
1020.69 1020.31 1019.92 1019.57 1019.20 1018.79 1018.36 1017.99 1017.67 1017.34 1016.98 1016.66 1016.33 1016.11 1015.72 1015.14 1014.59 1013.32 1011.46 1010.96 1010.50 1010.32 1010.32 1010.25 1009.80 1010.03 1010.15 1010.14 1010.05 1010.01 1010.01 1008.93 1008.16 1007.41 1006.65 1006.32 1005.88 1005.45 1004.80 1004.52 1003.94 1003.21 1002.66 1002.65 1002.77
1020.88 1020.42 1020.02 1019.67 1019.29 1018.90 1018.46 1017.93 1017.41 1016.93 1016.60 1016.41 1016.28 1016.08 1015.63 1015.01 1014.25 1011.45 1010.16 1010.38 1010.30 1009.77 1010.06 1010.32 1010.07 1009.81 1010.06 1009.65 1009.40 1009.03 1008.18 1007.58 1006.93 1006.81 1006.49 1005.86 1005.45 1005.31 1005.13 1004.54 1003.70 1003.46 1003.45 1003.41 1003.21
1020.85 1020.39 1019.98 1019.63 1019.20 1018.71 1018.26 1017.79 1017.31 1016.84 1016.39 1016.18 1016.10 1015.96 1015.60 1015.20 1013.59 1010.45 1010.34 1010.24 1009.99 1009.36 1010.12 1010.11 1010.11 1009.65 1009.39 1008.91 1008.55 1008.23 1007.24 1006.88 1006.29 1006.54 1006.52 1005.81 1005.44 1004.97 1004.99 1004.21 1003.87 1003.67 1003.50 1003.06 1003.25
1020.72 1020.25 1019.82 1019.39 1018.87 1018.27 1017.74 1017.24 1016.80 1016.52 1016.22 1016.05 1016.04 1016.05 1015.84 1015.66 1013.06 1010.58 1010.41 1010.55 1010.21 1010.04 1009.95 1010.03 1009.82 1009.28 1008.45 1008.07 1008.26 1007.94 1006.93 1006.52 1006.26 1006.20 1005.94 1005.87 1005.13 1004.67 1004.18 1004.04 1003.39 1003.41 1003.32 1003.14 1003.03
1020.61 1020.11 1019.65 1019.16 1018.65 1018.02 1017.35 1016.70 1016.14 1016.03 1015.74 1015.57 1015.70 1015.99 1016.28 1015.37 1011.22 1010.82 1010.71 1010.48 1010.49 1010.64 1010.29 1009.88 1009.08 1008.73 1008.29 1007.65 1007.46 1006.59 1006.53 1006.43 1006.39 1006.07 1005.94 1005.59 1004.54 1004.79 1002.95 1002.81 1003.28 1002.81 1002.55 1002.50 1002.53
1020.29 1019.82 1019.35 1018.86 1018.29 1017.63 1016.92 1016.18 1015.32 1015.47 1015.01 1014.78 1015.11 1015.53 1015.62 1013.21 1011.12 1010.78 1010.85 1010.81 1010.37 1010.47 1010.21 1009.58 1009.08 1009.00 1007.86 1007.71 1007.10 1006.82 1006.90 1006.41 1005.94 1005.87 1005.83 1005.66 1004.13 1002.61 1003.47 1003.04 1002.64 1002.53 1002.22 1002.14 1002.22
1020.29 1019.78 1019.25 1018.72 1018.16 1017.51 1016.75 1015.94 1015.11 1014.78 1014.32 1014.40 1014.77 1015.31 1014.39 1011.48 1011.06 1010.86 1010.39 1010.11 1009.84 1009.78 1010.00 1009.12 1008.95 1008.76 1008.33 1007.50 1007.30 1007.17 1007.37 1006.82 1004.86 1005.50 1005.55 1005.58 1002.47 1002.28 1002.55 1002.89 1002.33 1001.91 1001.61 1001.75 1001.61
1020.18 1019.75 1019.21 1018.68 1018.09 1017.34 1016.44 1015.43 1014.75 1014.46 1014.20 1014.38 1014.89 1015.26 1013.60 1011.09 1010.85 1009.44 1009.58 1009.63 1009.21 1009.10 1009.15 1008.61 1008.54 1008.19 1008.15 1008.08 1007.95 1007.31 1006.64 1005.83 1005.53 1004.75 1005.20 1005.13 1001.27 1002.30 1002.39 1002.67 1002.24 1002.13 1001.77 1001.63 1001.67
1020.07 1019.50 1018.95 1018.25 1017.49 1016.66 1015.62 1014.27 1013.75 1014.02 1014.31 1014.43 1014.78 1015.56 1012.61 1010.66 1009.49 1008.81 1008.32 1008.58 1009.05 1009.00 1009.11 1008.86 1008.30 1007.73 1007.92 1007.84 1006.42 1006.59 1006.62 1005.76 1005.16 1004.49 1004.80 1004.50 1001.60 1002.76 1002.87 1002.77 1002.21 1002.18 1001.69 1001.35 1001.03
1019.99 1019.34 1018.73 1018.11 1017.35 1016.77 1015.98 1015.10 1015.19 1014.86 1014.81 1014.41 1013.90 1013.52 1011.82 1010.23 1009.47 1008.45 1007.85 1008.03 1008.49 1009.21 1009.36 1008.60 1008.20 1006.74 1005.16 1005.53 1006.31 1006.44 1006.32 1005.88 1005.24 1005.02 1004.63 1004.05 1002.96 1003.06 1003.05 1002.55 1002.25 1001.85 1001.38 1000.87 1000.59
1019.66 1019.10 1018.38 1017.78 1017.26 1016.84 1016.60 1016.49 1016.50 1016.93 1015.58 1013.45 1012.83 1012.39 1011.04 1010.32 1009.30 1007.97 1007.70 1008.25 1008.15 1008.99 1009.22 1008.82 1007.03 1006.84 1006.73 1006.81 1006.80 1006.84 1006.81 1006.52 1006.09 1005.48 1005.03 1004.79 1003.83 1003.74 1003.26 1002.48 1001.99 1001.44 1000.97 1000.82 1000.56
1019.45 1018.90 1018.23 1017.59 1017.02 1016.78 1016.82 1016.26 1016.22 1016.51 1016.42 1013.23 1011.95 1011.06 1009.96 1009.59 1008.81 1007.91 1007.94 1007.91 1008.06 1008.16 1008.77 1008.73 1007.38 1006.74 1006.69 1006.55 1006.80 1006.84 1006.99 1006.91 1006.76 1006.20 1005.51 1005.40 1003.86 1003.27 1002.47 1001.91 1001.32 1000.66 1000.35 1000.16 1000.08
1019.17 1018.45 1017.99 1017.25 1016.89 1017.07 1016.44 1015.76 1015.93 1016.04 1015.76 1013.12 1011.23 1009.94 1009.38 1008.84 1008.42 1008.28 1008.17 1008.12 1007.96 1007.68 1007.98 1008.06 1006.94 1006.67 1006.53 1006.46 1006.65 1006.88 1006.87 1006.96 1007.08 1007.41 1006.84 1005.78 1003.78 1002.93 1002.00 1001.26 1000.80 1000.07 999.59 999.34 999.75
1018.83 1018.10 1017.55 1017.50 1017.27 1016.88 1015.99 1015.59 1015.50 1015.96 1015.30 1012.69 1010.93 1009.81 1009.77 1009.51 1008.61 1008.19 1007.77 1007.86 1007.78 1007.45 1007.41 1007.35 1006.65 1006.37 1006.25 1006.33 1006.40 1006.58 1006.74 1007.30 1007.50 1007.72 1007.51 1006.89 1006.28 1001.38 1001.36 1000.26 999.46 999.00 998.49 998.45 998.80
1018.14 1017.44 1016.97 1017.10 1017.34 1016.16 1015.59 1015.48 1015.71 1016.41 1014.77 1012.89 1011.73 1011.15 1010.62 1009.51 1008.70 1008.40 1008.52 1007.08 1007.29 1007.54 1007.25 1007.02 1006.48 1006.20 1005.82 1005.85 1006.08 1006.23 1006.87 1007.85 1008.34 1008.70 1007.96 1006.83 1006.79 1000.32 1000.64 999.01 998.27 998.18 998.07 998.06 998.15
1017.47 1016.55 1016.56 1016.58 1016.24 1015.67 1015.46 1015.89 1016.58 1016.25 1015.00 1014.00 1012.89 1012.21 1011.50 1010.47 1009.34 1008.86 1008.28 1008.02 1007.93 1007.97 1007.55 1007.00 1006.56 1005.95 1005.80 1006.12 1006.22 1006.51 1007.22 1008.81 1009.73 1009.38 1007.36 1006.18 1006.17 1000.44 999.03 998.23 998.17 998.13 997.91 997.94 997.89
1017.01 1016.41 1016.40 1016.08 1015.69 1015.53 1015.70 1016.37 1016.82 1016.28 1015.37 1014.58 1013.72 1012.75 1012.08 1011.28 1010.32 1009.78 1009.05 1008.84 1008.63 1008.80 1008.21 1007.44 1006.95 1005.94 1005.40 1005.76 1006.16 1006.70 1007.48 1007.84 1008.23 1008.12 1007.08 1006.21 1004.16 999.72 998.74 997.98 997.91 998.02 998.09 997.93 997.84
1016.71 1016.43 1016.39 1015.70 1015.49 1015.60 1016.30 1016.95 1017.16 1016.54 1015.80 1015.00 1014.06 1013.28 1012.76 1012.16 1011.90 1010.81 1010.16 1009.84 1010.08 1009.88 1009.50 1008.53 1007.25 1006.31 1005.59 1005.35 1005.79 1006.48 1007.15 1007.29 1007.93 1007.78 1007.28 1005.08 1002.23 999.98 998.82 998.05 997.69 998.13 998.20 998.01 997.59
1017.89 1017.34 1016.52 1015.73 1015.59 1016.12 1017.13 1017.58 1016.87 1016.15 1015.61 1015.02 1014.65 1013.98 1013.54 1012.99 1012.52 1011.89 1010.89 1010.31 1010.03 1009.73 1009.54 1009.19 1008.06 1007.26 1006.34 1005.75 1005.64 1005.87 1006.28 1007.32 1008.24 1008.03 1007.10 1004.52 1002.60 1000.43 998.75 998.39 997.73 998.35 998.43 997.91 997.13
1018.01 1017.68 1016.56 1015.96 1015.92 1017.11 1018.29 1018.02 1016.87 1015.73 1015.40 1015.01 1014.56 1014.37 1013.96 1013.60 1013.05 1012.43 1011.49 1010.82 1010.30 1009.90 1009.58 1009.58 1009.44 1008.24 1007.48 1006.88 1006.43 1006.53 1006.61 1007.07 1007.44 1007.43 1006.48 1004.87 1001.84 999.41 998.26 998.28 998.81 998.88 998.39 998.11 997.43
1018.91 1018.42 1016.75 1016.25 1017.39 1018.72 1018.90 1018.14 1017.05 1015.74 1015.08 1014.74 1014.52 1014.40 1014.09 1013.88 1013.40 1012.72 1011.68 1011.03 1010.51 1010.52 1010.46 1010.38 1010.27 1009.71 1008.66 1007.46 1007.29 1007.36 1007.43 1007.56 1007.66 1007.27 1006.17 1005.40 1002.45 999.38 998.86 998.79 998.81 998.72 998.12 997.71 997.45
1019.87 1019.30 1017.19 1017.01 1018.70 1019.53 1018.99 1018.14 1017.16 1016.11 1015.45 1014.89 1014.59 1014.36 1014.19 1014.21 1014.02 1012.91 1011.85 1010.82 1010.72 1010.69 1010.70 1010.66 1010.63 1010.45 1009.16 1008.43 1007.89 1007.83 1007.82 1007.88 1007.78 1007.47 1005.99 1005.16 1001.14 999.41 998.70 998.44 998.71 998.86 998.31 998.07 997.83
1020.25 1020.05 1019.28 1019.22 1019.73 1019.87 1019.29 1018.10 1017.19 1016.12 1015.54 1015.13 1014.79 1014.38 1014.58 1014.23 1013.76 1012.93 1012.00 1011.43 1010.78 1010.87 1010.57 1010.85 1010.99 1010.64 1010.00 1009.18 1008.62 1008.47 1008.15 1008.03 1008.02 1007.41 1005.77 1003.08 1002.52 1000.87 999.67 999.32 999.16 998.86 998.58 998.17 997.90
1021.04 1021.50 1021.18 1020.78 1020.37 1020.20 1019.52 1018.33 1017.27 1016.14 1015.62 1015.28 1014.88 1014.65 1014.70 1014.04 1013.42 1012.67 1011.88 1011.38 1011.03 1010.58 1010.71 1010.80 1010.84 1010.70 1010.13 1009.48 1008.94 1008.57 1008.05 1007.61 1007.53 1006.69 1005.73 1002.99 1002.78 1002.37 1000.69 1000.21 999.72 999.25 998.57 997.92 997.84
1021.87 1022.01 1021.48 1021.16 1020.49 1019.75 1019.00 1018.08 1017.17 1016.48 1016.42 1015.44 1015.06 1014.49 1014.18 1013.72 1013.59 1012.41 1012.25 1011.67 1011.20 1010.79 1010.80 1010.89 1010.72 1010.52 1009.77 1008.95 1008.39 1007.82 1007.16 1006.86 1006.47 1005.70 1004.16 1003.86 1002.58 1002.86 1001.69 999.77 999.50 998.92 998.40 997.67 997.36
1021.61 1021.76 1021.81 1020.97 1020.56 1019.97 1018.87 1017.82 1017.19 1016.94 1015.81 1015.35 1014.69 1014.07 1013.31 1012.68 1012.26 1011.51 1011.12 1010.63 1010.87 1010.75 1010.97 1011.07 1010.91 1010.67 1009.50 1008.47 1007.92 1007.06 1005.59 1005.34 1004.51 1003.88 1003.25 1002.46 1002.35 1002.52 1001.56 1000.05 999.06 998.31 997.72 997.17 996.54
Thickness
5592 5596 5599 5601 5604 5607 5611 5615 5617 5620 5623 5626 5630 5634 5641 5646 5656 5662 5673 5688 5694 5701 5705 5708 5711 5713 5715 5713 5719 5717 5691 5689 5719 5727 5746 5763 5757 5777 5791 5790 5798 5806 5806 5815 5822
5587 5590 5593 5596 5599 5603 5606 5609 5612 5615 5619 5622 5625 5627 5632 5639 5644 5652 5674 5678 5687 5690 5693 5695 5698 5700 5696 5702 5705 5702 5687 5711 5735 5747 5747 5754 5754 5761 5766 5767 5779 5794 5810 5815 5816
5581 5584 5587 5590 5593 5596 5600 5604 5608 5612 5614 5616 5617 5619 5624 5631 5636 5658 5671 5672 5674 5683 5685 5684 5689 5690 5683 5693 5698 5703 5704 5734 5742 5743 5746 5753 5751 5761 5757 5755 5775 5782 5787 5797 5806
5578 5581 5583 5585 5588 5591 5595 5599 5602 5605 5609 5610 5611 5612 5616 5620 5630 5655 5659 5663 5667 5675 5671 5673 5673 5675 5674 5685 5699 5691 5717 5730 5742 5736 5734 5741 5752 5747 5750 5762 5776 5782 5789 5795 5794
5574 5577 5580 5582 5586 5589 5593 5596 5597 5598 5600 5601 5601 5601 5604 5599 5613 5644 5650 5651 5655 5658 5659 5660 5661 5670 5669 5684 5690 5689 5708 5719 5731 5728 5731 5735 5738 5747 5750 5766 5780 5780 5784 5785 5790
5571 5574 5577 5579 5582 5585 5590 5594 5596 5595 5596 5596 5593 5591 5588 5579 5627 5631 5632 5638 5641 5641 5645 5650 5659 5664 5665 5674 5682 5698 5700 5708 5712 5715 5719 5718 5735 5735 5761 5776 5770 5778 5783 5786 5789
5570 5572 5574 5576 5578 5582 5586 5590 5594 5591 5593 5592 5587 5583 5580 5587 5614 5618 5618 5620 5626 5631 5637 5642 5647 5644 5658 5659 5675 5683 5676 5685 5699 5706 5706 5717 5716 5733 5751 5763 5763 5771 5781 5786 5786
5566 5568 5569 5571 5573 5576 5580 5584 5588 5588 5588 5584 5579 5573 5569 5597 5599 5600 5607 5608 5613 5617 5624 5631 5633 5634 5639 5654 5659 5660 5660 5655 5704 5698 5702 5701 5706 5745 5755 5750 5757 5769 5776 5778 5781
5560 5562 5563 5565 5567 5570 5574 5579 5580 5578 5576 5570 5562 5554 5554 5581 5580 5594 5594 5595 5601 5607 5612 5617 5619 5624 5629 5623 5623 5634 5648 5655 5674 5698 5695 5691 5720 5735 5747 5745 5747 5753 5760 5766 5767
5556 5558 5560 5562 5564 5567 5572 5577 5575 5567 5560 5554 5546 5532 5551 5561 5565 5568 5573 5581 5580 5584 5588 5591 5599 5603 5603 5605 5621 5629 5636 5653 5655 5682 5679 5681 5710 5720 5727 5731 5736 5739 5750 5756 5763
5552 5552 5554 5556 5557 5558 5561 5560 5548 5546 5542 5539 5537 5530 5531 5540 5540 5540 5546 5550 5552 5556 5555 5571 5571 5595 5635 5639 5640 5632 5633 5638 5652 5661 5671 5677 5692 5701 5708 5717 5726 5736 5747 5757 5762
5548 5549 5550 5551 5549 5549 5547 5542 5535 5524 5514 5532 5525 5514 5515 5516 5518 5529 5528 5517 5522 5522 5532 5538 5563 5598 5605 5604 5610 5611 5609 5615 5631 5646 5649 5659 5664 5677 5691 5707 5717 5730 5739 5745 5752
5543 5544 5545 5545 5544 5541 5535 5533 5525 5515 5498 5518 5520 5514 5514 5511 5507 5517 5516 5509 5505 5505 5509 5512 5555 5577 5583 5586 5588 5593 5594 5603 5613 5629 5641 5641 5653 5672 5693 5703 5716 5729 5738 5743 5748
5541 5541 5542 5541 5540 5530 5529 5528 5519 5509 5482 5508 5514 5511 5509 5509 5503 5508 5505 5499 5496 5499 5503 5508 5538 5550 5558 5565 5575 5573 5593 5601 5605 5605 5602 5636 5626 5663 5693 5699 5710 5727 5739 5747 5740
5538 5539 5537 5532 5528 5526 5530 5523 5515 5499 5478 5509 5508 5508 5500 5496 5502 5502 5502 5492 5489 5497 5504 5508 5527 5532 5534 5548 5564 5572 5591 5590 5596 5594 5602 5611 5599 5671 5690 5692 5715 5730 5743 5746 5742
5537 5538 5536 5530 5523 5527 5524 5518 5506 5478 5470 5498 5496 5488 5489 5494 5499 5498 5489 5502 5498 5493 5503 5509 5521 5527 5534 5549 5556 5572 5572 5570 5575 5573 5565 5604 5598 5674 5685 5709 5723 5727 5736 5738 5740
5538 5540 5534 5528 5528 5525 5519 5507 5475 5462 5491 5485 5483 5483 5479 5486 5492 5493 5496 5493 5490 5487 5491 5506 5510 5523 5530 5530 5543 5554 5546 5530 5537 5542 5577 5607 5597 5676 5702 5709 5715 5720 5727 5730 5737
5539 5537 5531 5527 5525 5520 5510 5489 5472 5488 5481 5481 5478 5477 5475 5480 5485 5483 5493 5490 5491 5481 5486 5497 5501 5519 5531 5527 5531 5532 5534 5533 5547 5551 5580 5605 5604 5670 5699 5714 5718 5722 5719 5725 5731
5539 5534 5528 5525 5520 5514 5497 5458 5475 5475 5474 5470 5472 5470 5467 5474 5465 5470 5480 5485 5475 5470 5477 5480 5503 5514 5525 5535 5534 5532 5528 5552 5547 5559 5567 5592 5637 5673 5690 5703 5715 5711 5714 5718 5727
5526 5523 5522 5520 5514 5504 5481 5483 5478 5477 5472 5466 5457 5463 5453 5456 5453 5455 5467 5481 5482 5485 5482 5487 5499 5508 5519 5528 5536 5535 5544 5536 5515 5548 5563 5593 5618 5643 5671 5682 5704 5700 5701 5713 5731
5519 5519 5518 5515 5508 5484 5459 5466 5473 5479 5471 5465 5461 5455 5457 5450 5452 5453 5467 5474 5477 5482 5484 5480 5485 5500 5507 5511 5518 5520 5525 5533 5532 5540 5565 5583 5611 5650 5671 5679 5688 5689 5696 5708 5723
5505 5510 5514 5509 5482 5447 5451 5471 5475 5474 5472 5464 5458 5453 5453 5451 5448 5455 5465 5473 5474 5472 5470 5472 5468 5475 5491 5506 5510 5514 5518 5521 5524 5550 5567 5565 5597 5651 5658 5666 5678 5682 5699 5712 5720
5501 5494 5506 5501 5454 5441 5458 5466 5468 5468 5463 5462 5458 5458 5458 5447 5440 5451 5463 5475 5473 5471 5468 5470 5460 5462 5485 5502 5504 5504 5511 5513 5518 5527 5546 5566 5606 5644 5653 5666 5674 5674 5691 5703 5713
5495 5483 5480 5474 5461 5461 5462 5467 5462 5468 5458 5456 5453 5453 5446 5440 5441 5446 5456 5465 5467 5468 5477 5467 5456 5462 5458 5488 5490 5491 5501 5508 5506 5508 5550 5579 5596 5623 5640 5654 5663 5668 5681 5694 5704
5477 5467 5468 5452 5453 5447 5452 5462 5460 5467 5462 5451 5446 5451 5441 5442 5447 5445 5452 5455 5459 5465 5460 5461 5463 5467 5468 5478 5484 5486 5492 5500 5502 5526 5530 5586 5584 5597 5623 5638 5650 5658 5675 5692 5697
5466 5463 5458 5450 5451 5461 5463 5462 5465 5465 5448 5450 5445 5449 5448 5442 5438 5443 5445 5446 5441 5450 5454 5452 5460 5462 5470 5486 5488 5487 5498 5501 5509 5524 5550 5559 5571 5585 5613 5641 5647 5658 5671 5687 5697
5473 5464 5455 5457 5448 5446 5449 5465 5463 5455 5457 5455 5454 5451 5453 5456 5457 5457 5454 5453 5446 5447 5447 5450 5456 5460 5463 5486 5485 5477 5502 5505 5522 5533 5549 5555 5572 5582 5601 5627 5645 5657 5673 5685 5699